TimeMST,TemperatureF,Dew PointF,Humidity,Sea Level PressureIn,VisibilityMPH,Wind Direction,Wind SpeedMPH,Gust SpeedMPH,PrecipitationIn,Events,Conditions,WindDirDegrees,DateUTC
12:53 AM,27.0,21.0,78,30.40,10.0,NE,4.6,-,N/A,,Clear,50,2012-12-05 07:53:00
1:53 AM,28.0,19.9,72,30.36,10.0,Calm,Calm,-,N/A,,Partly Cloudy,0,2012-12-05 08:53:00
2:53 AM,25.0,19.9,81,30.36,10.0,Calm,Calm,-,N/A,,Clear,0,2012-12-05 09:53:00
3:53 AM,25.0,19.0,78,30.34,10.0,Calm,Calm,-,N/A,,Partly Cloudy,0,2012-12-05 10:53:00
4:53 AM,24.1,19.0,81,30.37,10.0,ESE,3.5,-,N/A,,Partly Cloudy,120,2012-12-05 11:53:00
5:53 AM,23.0,19.0,85,30.36,10.0,Calm,Calm,-,N/A,,Clear,0,2012-12-05 12:53:00
7:53 AM,24.1,19.9,84,30.36,10.0,Calm,Calm,-,N/A,,Clear,0,2012-12-05 14:53:00
8:53 AM,30.0,21.9,72,30.33,10.0,Calm,Calm,-,N/A,,Clear,0,2012-12-05 15:53:00
9:53 AM,33.1,23.0,66,30.31,10.0,NW,3.5,-,N/A,,Clear,310,2012-12-05 16:53:00
10:53 AM,36.0,23.0,59,30.28,10.0,Calm,Calm,-,N/A,,Mostly Cloudy,0,2012-12-05 17:53:00
11:53 AM,37.9,23.0,55,30.23,10.0,WNW,4.6,-,N/A,,Overcast,300,2012-12-05 18:53:00
12:53 PM,39.9,21.0,47,30.18,10.0,Calm,Calm,-,N/A,,Overcast,0,2012-12-05 19:53:00
1:53 PM,39.9,23.0,51,30.17,10.0,Calm,Calm,-,N/A,,Overcast,0,2012-12-05 20:53:00
2:53 PM,39.9,24.1,53,30.17,10.0,ESE,5.8,-,N/A,,Overcast,120,2012-12-05 21:53:00
3:53 PM,43.0,23.0,45,30.15,10.0,South,5.8,-,N/A,,Overcast,170,2012-12-05 22:53:00
4:53 PM,39.9,25.0,55,30.16,10.0,SW,3.5,-,N/A,,Overcast,230,2012-12-05 23:53:00
5:53 PM,41.0,24.1,51,30.17,10.0,West,5.8,-,N/A,,Overcast,270,2012-12-06 00:53:00
6:53 PM,39.0,26.1,60,30.15,10.0,ESE,8.1,-,N/A,,Overcast,120,2012-12-06 01:53:00
7:53 PM,39.0,26.1,60,30.15,10.0,SW,5.8,-,N/A,,Overcast,220,2012-12-06 02:53:00
8:53 PM,37.9,27.0,65,30.13,10.0,East,4.6,-,N/A,,Overcast,90,2012-12-06 03:53:00
9:53 PM,39.0,26.1,60,30.11,10.0,Calm,Calm,-,N/A,,Overcast,0,2012-12-06 04:53:00
10:53 PM,37.0,28.0,70,30.09,10.0,Calm,Calm,-,N/A,,Overcast,0,2012-12-06 05:53:00
11:53 PM,37.0,28.0,70,30.08,10.0,Calm,Calm,-,N/A,,Overcast,0,2012-12-06 06:53:00